Hourly Weather Starye Turnali

Today, 13 July, Monday

Time Temperature Precipitation Wind Pressure Humidity
00:00 +18°C° 0 mm 1 mps 749 mmHg 84%
01:00 +18°C° 0 mm 1 mps 749 mmHg 85%
02:00 +18°C° 0 mm 1 mps 749 mmHg 85%
03:00 +18°C° 0 mm 1 mps 749 mmHg 86%
04:00 +18°C° 0 mm 2 mps 749 mmHg 85%
05:00 +18°C° 0 mm 2 mps 749 mmHg 84%
06:00 +19°C° 0 mm 3 mps 749 mmHg 83%
07:00 +21°C° 0 mm 3 mps 749 mmHg 80%
08:00 +22°C° 0 mm 4 mps 748 mmHg 77%
09:00 +25°C° 0 mm 4 mps 748 mmHg 74%
10:00 +26°C° 0.1 mm 3 mps 748 mmHg 73%
11:00 +27°C° 0.1 mm 3 mps 748 mmHg 72%
12:00 +28°C° 0.1 mm 2 mps 748 mmHg 72%
13:00 +28°C° 0 mm 3 mps 748 mmHg 72%
14:00 +29°C° 0 mm 3 mps 748 mmHg 72%
15:00 +29°C° 0 mm 4 mps 748 mmHg 72%
16:00 +29°C° 0 mm 4 mps 747 mmHg 76%
17:00 +29°C° 0 mm 4 mps 747 mmHg 79%
18:00 +28°C° 0 mm 3 mps 746 mmHg 83%
19:00 +27°C° 0.2 mm 4 mps 746 mmHg 87%
20:00 +26°C° 0.2 mm 4 mps 746 mmHg 90%
21:00 +25°C° 0.2 mm 5 mps 746 mmHg 94%
22:00 +23°C° 2 mm 4 mps 746 mmHg 95%
23:00 +24°C° 2 mm 3 mps 746 mmHg 96%

Tomorrow, 14 July, Tuesday

Time Temperature Precipitation Wind Pressure Humidity
00:00 +23°C° 2 mm 2 mps 746 mmHg 96%
01:00 +22°C° 0.7 mm 3 mps 746 mmHg 97%
02:00 +21°C° 0.7 mm 4 mps 746 mmHg 97%
03:00 +21°C° 0.7 mm 5 mps 746 mmHg 97%
04:00 +22°C° 0 mm 4 mps 746 mmHg 95%
05:00 +23°C° 0 mm 4 mps 746 mmHg 94%
06:00 +25°C° 0 mm 4 mps 746 mmHg 93%
07:00 +26°C° 0 mm 5 mps 746 mmHg 86%
08:00 +28°C° 0 mm 5 mps 746 mmHg 79%
09:00 +29°C° 0 mm 5 mps 746 mmHg 72%
10:00 +30°C° 0 mm 6 mps 746 mmHg 69%
11:00 +32°C° 0 mm 6 mps 746 mmHg 65%
12:00 +32°C° 0 mm 6 mps 746 mmHg 62%
13:00 +33°C° 0 mm 6 mps 746 mmHg 63%
14:00 +33°C° 0 mm 6 mps 746 mmHg 64%
15:00 +33°C° 0 mm 6 mps 746 mmHg 66%
16:00 +32°C° 0 mm 5 mps 746 mmHg 69%
17:00 +30°C° 0 mm 5 mps 746 mmHg 73%
18:00 +30°C° 0 mm 4 mps 745 mmHg 77%
19:00 +29°C° 0 mm 4 mps 745 mmHg 76%
20:00 +27°C° 0 mm 5 mps 746 mmHg 76%
21:00 +26°C° 0 mm 5 mps 746 mmHg 75%
22:00 +26°C° 0 mm 5 mps 746 mmHg 74%
23:00 +26°C° 0 mm 5 mps 745 mmHg 74%

Day after tomorrow, 15 July, Wednesday

Time Temperature Precipitation Wind Pressure Humidity
00:00 +25°C° 0 mm 5 mps 745 mmHg 73%
01:00 +25°C° 0 mm 5 mps 745 mmHg 73%
02:00 +23°C° 0 mm 5 mps 745 mmHg 72%
03:00 +22°C° 0 mm 5 mps 745 mmHg 72%
04:00 +22°C° 0 mm 5 mps 745 mmHg 73%
05:00 +22°C° 0 mm 5 mps 745 mmHg 74%
06:00 +22°C° 0 mm 5 mps 745 mmHg 75%
07:00 +25°C° 0 mm 5 mps 745 mmHg 73%
08:00 +26°C° 0 mm 5 mps 745 mmHg 70%
09:00 +27°C° 0 mm 5 mps 745 mmHg 68%
10:00 +28°C° 0 mm 5 mps 745 mmHg 66%
11:00 +29°C° 0 mm 5 mps 745 mmHg 65%
12:00 +30°C° 0 mm 4 mps 744 mmHg 64%
13:00 +29°C° 0 mm 5 mps 745 mmHg 67%
14:00 +28°C° 0 mm 5 mps 745 mmHg 70%
15:00 +27°C° 0 mm 6 mps 745 mmHg 72%
16:00 +27°C° 0 mm 5 mps 745 mmHg 74%
17:00 +27°C° 0 mm 4 mps 744 mmHg 75%
18:00 +26°C° 0 mm 3 mps 744 mmHg 76%
19:00 +25°C° 0 mm 2 mps 744 mmHg 79%
20:00 +24°C° 0 mm 2 mps 744 mmHg 83%
21:00 +23°C° 0 mm 2 mps 744 mmHg 86%
22:00 +21°C° 0 mm 2 mps 744 mmHg 86%
23:00 +21°C° 0 mm 2 mps 744 mmHg 87%

16 July, Thursday

Time Temperature Precipitation Wind Pressure Humidity
00:00 +22°C° 0 mm 1 mps 743 mmHg 87%
01:00 +22°C° 0 mm 1 mps 743 mmHg 86%
02:00 +20°C° 0 mm 2 mps 743 mmHg 86%
03:00 +20°C° 0 mm 2 mps 743 mmHg 86%
04:00 +21°C° 0 mm 2 mps 743 mmHg 86%
05:00 +21°C° 0 mm 2 mps 743 mmHg 86%
06:00 +21°C° 0 mm 2 mps 743 mmHg 87%
07:00 +22°C° 0 mm 3 mps 743 mmHg 81%
08:00 +23°C° 0 mm 4 mps 743 mmHg 76%
09:00 +23°C° 0 mm 5 mps 743 mmHg 70%
10:00 +23°C° 0 mm 6 mps 744 mmHg 68%
11:00 +24°C° 0 mm 6 mps 744 mmHg 65%
12:00 +24°C° 0 mm 6 mps 744 mmHg 63%
13:00 +24°C° 0 mm 6 mps 744 mmHg 62%
14:00 +23°C° 0 mm 6 mps 745 mmHg 61%
15:00 +23°C° 0 mm 5 mps 745 mmHg 60%
16:00 +23°C° 0 mm 5 mps 745 mmHg 64%
17:00 +22°C° 0 mm 4 mps 745 mmHg 69%
18:00 +21°C° 0 mm 3 mps 745 mmHg 73%
19:00 +20°C° 0 mm 3 mps 745 mmHg 75%
20:00 +18°C° 0 mm 2 mps 745 mmHg 77%
21:00 +17°C° 0 mm 2 mps 745 mmHg 79%
22:00 +17°C° 0 mm 2 mps 745 mmHg 80%
23:00 +16°C° 0 mm 2 mps 745 mmHg 82%

17 July, Friday

Time Temperature Precipitation Wind Pressure Humidity
00:00 +16°C° 0 mm 2 mps 745 mmHg 83%
01:00 +15°C° 0 mm 2 mps 745 mmHg 84%
02:00 +15°C° 0 mm 2 mps 745 mmHg 85%
03:00 +15°C° 0 mm 2 mps 745 mmHg 86%
04:00 +16°C° 0 mm 2 mps 745 mmHg 85%
05:00 +17°C° 0 mm 2 mps 745 mmHg 84%
06:00 +18°C° 0 mm 2 mps 745 mmHg 83%
07:00 +19°C° 0 mm 2 mps 745 mmHg 78%
08:00 +20°C° 0 mm 3 mps 745 mmHg 73%
09:00 +21°C° 0 mm 3 mps 745 mmHg 69%
10:00 +22°C° 0 mm 3 mps 745 mmHg 66%
11:00 +24°C° 0 mm 3 mps 745 mmHg 63%
12:00 +24°C° 0 mm 3 mps 745 mmHg 61%
13:00 +24°C° 0 mm 3 mps 745 mmHg 61%
14:00 +24°C° 0 mm 3 mps 745 mmHg 61%
15:00 +24°C° 0 mm 3 mps 745 mmHg 61%
16:00 +24°C° 0 mm 3 mps 745 mmHg 65%
17:00 +22°C° 0 mm 3 mps 744 mmHg 69%
18:00 +23°C° 0 mm 2 mps 744 mmHg 73%
19:00 +20°C° 0 mm 2 mps 744 mmHg 77%
20:00 +19°C° 0 mm 2 mps 744 mmHg 80%
21:00 +17°C° 0 mm 2 mps 744 mmHg 84%
22:00 +16°C° 0 mm 1 mps 744 mmHg 86%
23:00 +16°C° 0 mm 1 mps 744 mmHg 88%

18 July, Saturday

Time Temperature Precipitation Wind Pressure Humidity
00:00 +15°C° 0 mm 1 mps 744 mmHg 90%
01:00 +15°C° 0 mm 1 mps 744 mmHg 91%
02:00 +15°C° 0 mm 1 mps 744 mmHg 92%
03:00 +15°C° 0 mm 1 mps 744 mmHg 92%
04:00 +15°C° 0 mm 1 mps 744 mmHg 90%
05:00 +16°C° 0 mm 1 mps 744 mmHg 88%
06:00 +18°C° 0 mm 1 mps 744 mmHg 86%
07:00 +18°C° 0 mm 2 mps 744 mmHg 81%
08:00 +20°C° 0 mm 2 mps 744 mmHg 77%
09:00 +21°C° 0 mm 2 mps 744 mmHg 72%
10:00 +21°C° 0.2 mm 2 mps 744 mmHg 71%
11:00 +22°C° 0.2 mm 3 mps 744 mmHg 70%
12:00 +22°C° 0.2 mm 3 mps 744 mmHg 69%
13:00 +22°C° 0.5 mm 4 mps 743 mmHg 70%
14:00 +22°C° 0.5 mm 4 mps 743 mmHg 71%
15:00 +22°C° 0.5 mm 4 mps 743 mmHg 72%
16:00 +22°C° 0.3 mm 4 mps 743 mmHg 75%
17:00 +21°C° 0.3 mm 4 mps 743 mmHg 78%
18:00 +21°C° 0.3 mm 4 mps 743 mmHg 81%
19:00 +19°C° 0 mm 4 mps 743 mmHg 85%
20:00 +18°C° 0 mm 3 mps 743 mmHg 90%
21:00 +17°C° 0 mm 3 mps 743 mmHg 94%
22:00 +16°C° 0 mm 3 mps 743 mmHg 95%
23:00 +15°C° 0 mm 4 mps 743 mmHg 96%
Show more